Погода в Тевризе

Погода в Тевризе : погода сейчас, прогноз погоды и архив. Всё, что Вы хотите узнать о погоде в Тевризе!

Хотите узнать прогноз погоды в Тевризе? Тогда Вам сюда: Погода в Тевризе

Поиск расширенной информации на нашем сайте:

Другие новости

Новости СМИ2

Главная страница сайта

Новости сайта

02.10.2013

Напоминаем, что на нашем новом сайте вы можете получить высокодетализированные прогнозы погоды по пунктам России, СНГ и мира (включающие важные для авиации метеовеличины, такие как направление и скорость ветра, видимость, явления погоды, количество и форма облачности, нижняя и верхняя граница облачности), а также ознакомиться с разнообразными материалами по авиационной метеорологии и подборкой полезных ссылок на эту тему.

Сайт Метеоцентр.Азия посвящён разработке технологий оптимизации авиаметеорологического обслуживания, включая проектирование и перспективное создание нескольких автоматизированных авиаметеорологических систем:
- система выпуска высокодетальных прогностических карт явлений погоды для нижнего воздушного пространства по России и ближнему зарубежью;
- система верификации прогнозов TAF (выпускаемых синоптиками официальных АМСГ РФ и ближнего зарубежья) и AUTOTAF (выпускаемых сайтом Метеоцентр.Азия) - выявление ошибок, онлайн-сопоставление с фактической погодой METAR, автоматическое внесение коррективов в прогнозы при резком отклонении фактической погоды от прогноза, подсчёт оправдываемости прогнозов по элементам и в целом;
- система обработки, анализа и отображения авиаметеорологической информации для применения провайдерами метеорологической информации.

Рекомендуем: Супер прогрессивный стабилизатор переменного напряжения

Погода в Тевризе - сегодня

Время (UTC), дата Ветер
(°,м/с) 
Видим.   Явления Облачность Т
(°С)
Тd
(°С)
f(%) Тe
(°С)
Pmin
(гПа)
dP
(гПа)
Po
(мм)
O2
(г/м3)
Тmin Tmax R s Состояние
почвы
06 17.02.17 270 (З) н/о    н/о 
-14.5 -15.4 93 -17  1018.7  0.1  757  324           
09 17.02.17 250 (З) 20000 м    1/0 верхняя 
[Ci sp]
-10.2 -13.3 78 -13  1018.4  0.1  757  318           
12 17.02.17 240 (ЮЗ) н/о    н/о 
-10.4 -13.5 78 -13  1018.6  0.2  758  319           
15 17.02.17 210 (ЮЗ) 10 км    ясно 
-13.1 -14.8 87 -18  1019.1  0.4  758  322    -9.1       
18 17.02.17 220 (ЮЗ) 10 км  позёмок  ясно 
-14 -15.8 86 -19  1019.3  0.2  758  323           
21 17.02.17 210 (ЮЗ) 10 км    1/0 верхняя 
[Ci fib]
-15.6 -16.7 91 -20  1018.9  -0.5  758  325           
00 18.02.17 220 (ЮЗ) 10 км    3/0 верхняя 
[Ci fib]
-17 -18.2 90 -21  1018.6  -0.3  757  327           
03 18.02.17 230 (ЮЗ) 20000 м  позёмок  10/0 средняя 
[Ac und]
-16.2 -18 86 -21  1018.5  -0.1  757  326  -17.1      73  неравномерный
сухой снег
100% 
06 18.02.17 220 (ЮЗ) н/о    н/о 
-14.3 -17.6 76 -19  1018.2  -0.2  757  323           
09 18.02.17 210 (ЮЗ) 20000 м  позёмок  8/0 верхняя 
[Cc]
-10.7 -16.1 64 -16  1018.1  757  319           
12 18.02.17 200 (Ю) н/о    н/о 
-12.2 -16.6 70 -17  1016.5  -1.6  756  320           
15 18.02.17 200 (Ю) 4{10}  10 км  позёмок  ясно 
-15.1 -17.5 82 -20  1016.1  -0.5  756  324    -10       
18 18.02.17 200 (Ю) 10 км  позёмок  ясно 
-15.6 -17.3 87 -21  1015.4  -0.7  755  324           
21 18.02.17 190 (Ю) 10 км  позёмок  ясно 
-16.1 -18.3 83 -21  1014  -1.5  754  324           
00 19.02.17 160 (Ю) 10 км    ясно 
-18.3 -19.1 93 -21  1012.9  -1.1  753  327           
03 19.02.17 170 (Ю) 20000 м    3/0 верхняя 
[Ci sp]
-18.8 -20.1 89 -24  1011.8  -1.1  752  327  -19      73  неравномерный
сухой снег
100% 
06 19.02.17 170 (Ю) н/о    н/о 
-15.2 -17.9 80 -19  1010.6  -1.1  751  322           
09 19.02.17 180 (Ю) 20000 м    3/0 верхняя 
[Ci sp]
-9.4 -15 64 -14  1007.8  -2.6  749  314           
12 19.02.17 180 (Ю) н/о    н/о 
-11.6 -16.1 69 -17  1006.4  -1.4  748  316           
15 19.02.17 190 (Ю) 6-11{11}  4000 м  слаб. снег  10/0 верхняя 
[Cs]
-12.5 -15.4 79 -18  1004.7  -1.4  747  317    -9.1  0.0     
18 19.02.17 180 (Ю) 4{11}  4000 м  слаб. снег  10/0 средняя 
[As op]
-12.4 -14.3 86 -17  1002.3  -2.3  745  316           
21 19.02.17 160 (Ю) 4000 м  слаб. снег  10/0 средняя 
[As op]
-12.3 -13.3 92 -17  1000.1  -2.3  744  315           
00 20.02.17 180 (Ю) 4000 м  слаб. снег  10/0 средняя 
[As op]
-12 -12.8 94 -15  997.8  -2.2  742  314           
03 20.02.17 220 (ЮЗ) 7000 м  слаб. снег  10/0 средняя 
[As op]
-11.6 -12.4 94 -16  998.5  0.7  743  314  -12.7       
06 20.02.17 260 (З) н/о    н/о 
-10.2 -11.9 87 -16  1000.8  2.4  744  313           
Время (UTC), дата Ветер
(°,м/с) 
Видим.   Явления Облачность Т
(°С)
Тd
(°С)
f(%) Тe
(°С)
Pmin
(гПа)
dP
(гПа)
Po
(мм)
O2
(г/м3)
Тmin Tmax R s Состояние
почвы

Для получения пояснительной информации подведите курсор к названию столбца.

ПОГОДА в Тевризе - архив

Всё, что Вы хотите узнать о погоде в Тевризе - удобно и подробно!

Выберите нужную дату (начиная с 1 января 2015* года) и нажмите кнопку "Найти".
Будут отображены архивные сводки погоды по пункту Тевриз, начиная с указанной даты.


Отображать данные в формате CSV (для использования в таблицах Excel)


Внимание! Наш архив погоды предназначен исключительно для личного некоммерческого использования в познавательных целях. Если Вам необходимы официальные справки о состоянии погоды (для производственных, юридических, коммерческих и т.п. целей), обращайтесь в органы Росгидромета.

*Примечание: данная дата относится к архиву по метеостанциям СССР (Россия, СНГ, Балтия).
Архив по метеостанциям Зарубежной Европы и Азии (кроме Китая) хранится 10 дней, по другим регионам земного шара (Китай, Африка, Америка, Австралия, Океания) - 1 день.

Тевриз - район местоположения метеостанции


Название, широта, долгота, высота метеостанции:
Тевриз 57.5°ш. 72.4°д. 67 м над ур. моря [Российская Федерация]

Дополнительная информация

В oтличие oт бoльшинства пoгoдных сайтoв мы публикуем пoдрoбную метеoинфoрмацию в детальнoм прoфессиoнальнoм фoрмате.

Характеристики температуры и влажнoсти вoздуха измеряются на высoте 2 м в тени вдали oт зданий и деревьев.
Скoрoсть ветра измеряется на высoте 10 м (на урoвне рoста челoвека скoрoсть ветра ниже в 1.5-2 раза). Если метеoстанция нахoдится в гoрoде или в лесу, тo скoрoсть ветра занижена на 2-4 м/с пo сравнению с oткрытым местoм. Скoрoсть ветра над акватoриями крупных рек и oзёр, а также на вершинах хoлмoв на 2-5 м/с выше, чем в oбычных услoвиях.
Атмoсфернoе давление в разных тoчках местнoсти мoжет значительнo oтличаться oт давления на метеoстанции, в зависимoсти oт услoвий рельефа (при пoдъёме на 10 м давление пoнижается примернo на 1 мм рт.ст.).